COSMOS 996

导读

COSMOS 996属于苏联/独联体(CIS)的宇宙卫星系列,1978年3月28日08时发射升空。该系列卫星自1962年起持续发射,覆盖科学研究、航天技术试验、军事侦察等多元任务,苏联时期常将其他计划任务失败的探测器纳入该序列编号。作为冷战时期苏联航天活动的典型产物,它延续了宇宙系列保密命名传统,隐藏任务属性,服役期间完成既定空间任务,后续已退役成为空间碎片,是苏联航天发展的见证者。

Basic Information
目录编号:
10744
目录名称:
COSMOS 996
国际标识:
1978-031A
轨道中心:
EARTH
卫星名称:
COSMOS 996
卫星全名:
--
卫星状态:
在轨 (已飞行17612 天)
发射日期:
1978-03-28 UTC
国别 :
俄罗斯(独联体) (CIS)
星等 :
--
Orbit Information
数据来源 国际轨道数据 AOE轨道数据
星历时间 2026-06-16T15:47:35+0800
4小时前
查看轨道信息
2026-06-16T04:00:00+0800
16小时前
查看轨道信息
半长轴 7353.621km 7353.621km
偏心率 0.0038378 0.0038274
轨道倾角 82.927° 82.927°
近地点辐角 65.336° 66.914°
升交点赤经 99.206° 99.573°
平近点角 54.528° 138.939°
近地点 947.262km 947.338km
远地点 1003.706km 1003.63km
周期 104.595分钟 104.595分钟
每日圈数 13.767368 13.76737
Detailed Information
使用方式:
暂无
2D Orbit Map
3D Orbit Map
Orbit Altitude Analysis Chart
Orbit Inclination Analysis Chart
Orbit Comprehensive Analysis Chart
View Comprehensive Chart